Terug naar catalogus

FENGYUN 1C DEB

ActiefSSO
NORAD 36260·DEBRIS·🇨🇳 China

Gelanceerd May 10, 1999 vanaf Taiyuan Satellite Launch Center

Loading…

Volgende Passages (komende 24 uur)

TLE

VersSource: Space-Track

Epoch: Sep 14, 2026, 11:16 UTC

1 36260U 99025DWM 26257.46974986  .00000159  00000-0  10316-3 0  9996
2 36260  98.6695 256.9305 0015980 176.8924 183.2353 14.15540928917092

Volg FENGYUN 1C DEB in realtime met AllMySat

Download on the App Store